This is the latest recevied weather packets stored in our database for station/object AB0TJ. If no packets are shown the sender has not sent any weather packets the latest 1 day(s).
| Time | Temp. | Humidity | Pressure | Rain* | Wind** | Luminosity | Snow |
|---|---|---|---|---|---|---|---|
| 1778013469 | 22.22° C | 14% | 1005.4 hPa | 0 mm | 4.02 m/s, 311° | 817 W/m² | - |
| 1778012872 | 22.22° C | 14% | 1005.4 hPa | 0 mm | 4.02 m/s, 298° | 816 W/m² | - |
| 1778012329 | 22.22° C | 15% | 1005.5 hPa | 0 mm | 3.58 m/s, 316° | 827 W/m² | - |
| 1778011759 | 22.22° C | 16% | 1005.5 hPa | 0 mm | 4.02 m/s, 290° | 846 W/m² | - |
| 1778011164 | 21.67° C | 16% | 1005.5 hPa | 0 mm | 4.92 m/s, 281° | 860 W/m² | - |
| 1778010604 | 21.67° C | 17% | 1005.4 hPa | 0 mm | 2.68 m/s, 281° | 876 W/m² | - |
| 1778010019 | 21.11° C | 18% | 1005.5 hPa | 0 mm | 4.47 m/s, 322° | 559 W/m² | - |
| 1778009508 | 21.11° C | 18% | 1005.6 hPa | 0 mm | 2.68 m/s, 335° | 699 W/m² | - |
| 1778009019 | 20.56° C | 18% | 1005.7 hPa | 0 mm | 2.68 m/s, 300° | 271 W/m² | - |
| 1778008520 | 21.11° C | 21% | 1005.9 hPa | 0 mm | 1.34 m/s, 250° | 198 W/m² | - |
| 1778007992 | 21.67° C | 20% | 1005.9 hPa | 0 mm | 1.34 m/s, 143° | 226 W/m² | - |
| 1778007398 | 21.11° C | 21% | 1006.2 hPa | 0 mm | 3.13 m/s, 318° | 883 W/m² | - |
| 1778006839 | 20.56° C | 21% | 1006.1 hPa | 0 mm | 1.79 m/s, 313° | 688 W/m² | - |
| 1778006344 | 21.11° C | 22% | 1006.3 hPa | 0 mm | 0.89 m/s, 305° | 195 W/m² | - |
| 1778005839 | 21.11° C | 22% | 1006.4 hPa | 0 mm | 2.68 m/s, 304° | 481 W/m² | - |
| 1778005304 | 21.11° C | 24% | 1006.4 hPa | 0 mm | 1.79 m/s, 289° | 819 W/m² | - |
| 1778004759 | 20.56° C | 26% | 1006.6 hPa | 0 mm | 0.45 m/s, 229° | 799 W/m² | - |
| 1778004224 | 20.56° C | 26% | 1006.8 hPa | 0 mm | 2.24 m/s, 303° | 735 W/m² | - |
| 1778003719 | 20° C | 27% | 1007 hPa | 0 mm | 2.68 m/s, 291° | 792 W/m² | - |
| 1778003154 | 20° C | 28% | 1007.1 hPa | 0 mm | 2.68 m/s, 318° | 783 W/m² | - |
| 1778002574 | 20° C | 30% | 1006.9 hPa | 0 mm | 1.79 m/s, 316° | 736 W/m² | - |
| 1778002059 | 19.44° C | 31% | 1007.2 hPa | 0 mm | 3.13 m/s, 289° | 718 W/m² | - |
| 1778001464 | 19.44° C | 31% | 1007.2 hPa | 0 mm | 1.34 m/s, 7° | 699 W/m² | - |
| 1778000959 | 19.44° C | 30% | 1007.3 hPa | 0 mm | 2.24 m/s, 336° | 683 W/m² | - |
| 1778000454 | 20° C | 30% | 1007.3 hPa | 0 mm | 1.34 m/s, 243° | 668 W/m² | - |
* Rain latest hour (hover to see other rain measurements)
** Current wind speed in m/s (hover to see current wind gust speed)